Tracking 28052 objects as of 25-Sep-2023
HD Live streaming from Space Station
objects crossing your sky now

STARLINK-5033

Track STARLINK-5033 now!
10-day predictions
STARLINK-5033 is classified as:


NORAD ID: 55412
Int'l Code: 2023-014X
Perigee: 577.8 km
Apogee: 582.3 km
Inclination: 70.0 °
Period: 96.1 minutes
Semi major axis: 6951 km
RCS: Unknown
Launch date: January 31, 2023
Source: United States (US)
Launch site: AIR FORCE WESTERN TEST RANGE (AFWTR)
Your satellite tracking list
Your tracking list is empty




NASA's NSSDC Master Catalog

Two Line Element Set (TLE):
1 55412U 23014X   23267.88965361 -.00034999  00000-0 -29612-2 0  9991
2 55412  70.0030 185.4724 0003188 271.7242  88.3552 14.98052500 37235
Source of the keplerian elements: AFSPC